| time (UTC) | temp F | wind direction | speed MPH | gust MPH | rain 1hr in | rain 24hr in | rain mn in | humidity % | barometer mb |
| 20260903154543 | 81 | 351 | 1.0 | 4.0 | 0.00 | 0.01 | 0.00 | 33 | 1016.6 |
| 20260903153041 | 81 | 250 | 2.0 | 5.0 | 0.00 | 0.01 | 0.00 | 33 | 1016.2 |
| 20260903151537 | 80 | 252 | 1.0 | 4.0 | 0.00 | 0.01 | 0.00 | 33 | 1016.2 |
| 20260903150035 | 79 | 326 | 0.0 | 5.0 | 0.00 | 0.01 | 0.00 | 35 | 1016.3 |
| 20260903144530 | 79 | 227 | 3.0 | 6.0 | 0.00 | 0.01 | 0.00 | 35 | 1016.2 |
| 20260903143027 | 78 | 276 | 0.0 | 3.0 | 0.00 | 0.01 | 0.00 | 37 | 1016.2 |
| 20260903141524 | 78 | 225 | 1.0 | 3.0 | 0.00 | 0.01 | 0.00 | 36 | 1016.0 |
| 20260903140037 | 78 | 240 | 0.0 | 4.0 | 0.00 | 0.01 | 0.00 | 37 | 1015.8 |
| 20260903134521 | 76 | 99 | 2.0 | 4.0 | 0.00 | 0.01 | 0.00 | 39 | 1015.9 |
| 20260903133014 | 76 | 133 | 0.0 | 1.0 | 0.00 | 0.01 | 0.00 | 40 | 1016.0 |
| 20260903131511 | 75 | 122 | 0.0 | 6.0 | 0.00 | 0.01 | 0.00 | 42 | 1016.3 |
| 20260903130005 | 74 | 108 | 2.0 | 5.0 | 0.00 | 0.01 | 0.00 | 44 | 1016.6 |
| 20260903124502 | 73 | 34 | 4.0 | 10.0 | 0.00 | 0.01 | 0.00 | 45 | 1017.0 |
| 20260903123058 | 73 | 23 | 1.0 | 6.0 | 0.00 | 0.01 | 0.00 | 46 | 1016.9 |
| 20260903121555 | 72 | 62 | 4.0 | 9.0 | 0.00 | 0.01 | 0.00 | 47 | 1016.9 |
| 20260903120056 | 72 | 69 | 3.0 | 9.0 | 0.00 | 0.01 | 0.00 | 48 | 1016.9 |
| 20260903114653 | 72 | 27 | 6.0 | 11.0 | 0.00 | 0.01 | 0.00 | 48 | 1016.8 |
| 20260903113046 | 72 | 17 | 4.0 | 9.0 | 0.00 | 0.01 | 0.00 | 48 | 1016.6 |
| 20260903111540 | 0 | 0.0 | 0.0 | 0.00 | 0.01 | 0.00 | 1016.1 | ||
| 20260903110041 | 0 | 0.0 | 0.0 | 0.00 | 0.01 | 0.00 | 1015.9 | ||
| 20260903104530 | 0 | 0.0 | 0.0 | 0.00 | 0.01 | 0.00 | 1015.4 | ||
| 20260903103028 | 0 | 0.0 | 0.0 | 0.00 | 0.01 | 0.00 | 1014.9 | ||
| 20260903101522 | 0 | 20 | 0.0 | 0.0 | 0.00 | 0.01 | 0.00 | 1014.9 | |
| 20260903100019 | 71 | 20 | 0.0 | 0.0 | 0.00 | 0.01 | 0.00 | 49 | 1014.7 |
| 20260903094521 | 71 | 20 | 0.0 | 0.0 | 0.00 | 0.01 | 0.00 | 49 | 1014.9 |
| 20260903093018 | 71 | 20 | 0.0 | 0.0 | 0.00 | 0.01 | 0.00 | 48 | 1014.9 |
| 20260903091512 | 71 | 20 | 0.0 | 0.0 | 0.00 | 0.01 | 0.00 | 49 | 1014.9 |
| 20260903090013 | 71 | 20 | 0.0 | 0.0 | 0.00 | 0.01 | 0.00 | 48 | 1015.0 |
| 20260903084507 | 71 | 20 | 0.0 | 0.0 | 0.00 | 0.01 | 0.00 | 48 | 1014.9 |
| 20260903083007 | 71 | 20 | 0.0 | 0.0 | 0.00 | 0.01 | 0.00 | 48 | 1014.8 |
| 20260903081505 | 72 | 20 | 0.0 | 1.0 | 0.00 | 0.01 | 0.00 | 48 | 1014.8 |
| 20260903080003 | 71 | 20 | 1.0 | 3.0 | 0.00 | 0.01 | 0.00 | 48 | 1015.0 |
| 20260903074610 | 71 | 28 | 0.0 | 1.0 | 0.00 | 0.01 | 0.00 | 48 | 1015.0 |
| 20260903073135 | 71 | 29 | 0.0 | 0.0 | 0.00 | 0.01 | 0.00 | 47 | 1014.8 |
| 20260903071618 | 71 | 192 | 0.0 | 0.0 | 0.00 | 0.01 | 0.00 | 47 | 1014.6 |
| 20260903070055 | 71 | 235 | 1.0 | 3.0 | 0.00 | 0.01 | 0.00 | 47 | 1014.6 |
| 20260903064552 | 71 | 202 | 1.0 | 4.0 | 0.00 | 0.01 | 0.00 | 46 | 1014.5 |
| 20260903063056 | 71 | 208 | 1.0 | 3.0 | 0.00 | 0.01 | 0.00 | 46 | 1014.5 |
| 20260903061547 | 71 | 226 | 0.0 | 0.0 | 0.00 | 0.01 | 0.00 | 44 | 1014.6 |
| 20260903060111 | 71 | 232 | 0.0 | 0.0 | 0.00 | 0.01 | 0.00 | 41 | 1014.9 |
| 20260903054541 | 71 | 177 | 0.0 | 0.0 | 0.00 | 0.01 | 0.00 | 39 | 1015.1 |
| 20260903053036 | 72 | 235 | 0.0 | 0.0 | 0.00 | 0.01 | 0.00 | 40 | 1015.3 |
| 20260903051533 | 72 | 174 | 0.0 | 0.0 | 0.00 | 0.01 | 0.00 | 43 | 1015.4 |
| 20260903050032 | 73 | 141 | 0.0 | 0.0 | 0.00 | 0.01 | 0.00 | 45 | 1015.4 |
| 20260903044528 | 73 | 118 | 1.0 | 3.0 | 0.00 | 0.01 | 0.00 | 45 | 1015.5 |
| 20260903043026 | 73 | 130 | 2.0 | 5.0 | 0.00 | 0.01 | 0.00 | 45 | 1015.6 |
| 20260903041521 | 72 | 131 | 1.0 | 2.0 | 0.00 | 0.01 | 0.00 | 45 | 1015.5 |
| 20260903040018 | 73 | 147 | 2.0 | 4.0 | 0.00 | 0.01 | 0.00 | 45 | 1015.3 |
| 20260903034515 | 73 | 129 | 0.0 | 0.0 | 0.00 | 0.01 | 0.01 | 44 | 1015.4 |
| 20260903033014 | 73 | 166 | 0.0 | 0.0 | 0.00 | 0.01 | 0.01 | 45 | 1015.6 |
| 20260903031510 | 72 | 254 | 0.0 | 0.0 | 0.00 | 0.01 | 0.01 | 47 | 1015.5 |
| 20260903030010 | 72 | 254 | 0.0 | 0.0 | 0.00 | 0.01 | 0.01 | 47 | 1015.4 |
| 20260903024505 | 72 | 254 | 0.0 | 0.0 | 0.00 | 0.01 | 0.01 | 46 | 1015.3 |
| 20260903023004 | 73 | 252 | 0.0 | 0.0 | 0.00 | 0.01 | 0.01 | 46 | 1015.2 |
| 20260903021508 | 73 | 279 | 0.0 | 0.0 | 0.00 | 0.01 | 0.01 | 46 | 1015.2 |
| 20260903020103 | 73 | 278 | 0.0 | 0.0 | 0.00 | 0.01 | 0.01 | 46 | 1015.0 |
| 20260903014606 | 73 | 258 | 0.0 | 0.0 | 0.00 | 0.01 | 0.01 | 47 | 1015.3 |
| 20260903013055 | 73 | 269 | 0.0 | 0.0 | 0.00 | 0.01 | 0.01 | 47 | 1015.6 |
| 20260903011553 | 73 | 272 | 0.0 | 0.0 | 0.00 | 0.01 | 0.01 | 47 | 1015.6 |
| 20260903010052 | 74 | 248 | 0.0 | 0.0 | 0.00 | 0.01 | 0.01 | 46 | 1015.6 |
| 20260903004552 | 74 | 268 | 0.0 | 3.0 | 0.00 | 0.01 | 0.01 | 46 | 1015.6 |
| 20260903003145 | 74 | 237 | 0.0 | 2.0 | 0.00 | 0.01 | 0.01 | 46 | 1015.5 |
| 20260903001549 | 74 | 262 | 0.0 | 1.0 | 0.00 | 0.01 | 0.01 | 46 | 1015.9 |
| 20260903000040 | 75 | 262 | 0.0 | 4.0 | 0.00 | 0.01 | 0.01 | 47 | 1016.2 |
| 20260902234553 | 75 | 274 | 0.0 | 0.0 | 0.00 | 0.01 | 0.01 | 49 | 1015.7 |
| 20260902233038 | 76 | 249 | 0.0 | 0.0 | 0.00 | 0.01 | 0.01 | 52 | 1015.6 |
| 20260902231542 | 76 | 276 | 0.0 | 0.0 | 0.00 | 0.01 | 0.01 | 54 | 1015.6 |
| 20260902230033 | 76 | 255 | 0.0 | 0.0 | 0.00 | 0.01 | 0.01 | 54 | 1016.1 |
| 20260902224529 | 77 | 269 | 0.0 | 0.0 | 0.00 | 0.01 | 0.01 | 56 | 1016.2 |
| 20260902223028 | 78 | 262 | 0.0 | 0.0 | 0.00 | 0.01 | 0.01 | 56 | 1016.0 |
| 20260902221528 | 79 | 269 | 0.0 | 3.0 | 0.00 | 0.01 | 0.01 | 55 | 1015.7 |
| 20260902220030 | 79 | 194 | 0.0 | 3.0 | 0.00 | 0.01 | 0.01 | 53 | 1015.8 |
| 20260902214521 | 77 | 238 | 0.0 | 0.0 | 0.00 | 0.01 | 0.01 | 47 | 1016.0 |
| 20260902213019 | 76 | 143 | 0.0 | 0.0 | 0.00 | 0.01 | 0.01 | 40 | 1016.3 |
| 20260902211616 | 75 | 211 | 0.0 | 1.0 | 0.00 | 0.01 | 0.01 | 40 | 1016.5 |
| 20260902210014 | 75 | 188 | 1.0 | 4.0 | 0.00 | 0.01 | 0.01 | 40 | 1016.1 |
| 20260902204512 | 75 | 241 | 0.0 | 0.0 | 0.00 | 0.01 | 0.01 | 41 | 1016.1 |
| 20260902203009 | 75 | 352 | 0.0 | 2.0 | 0.00 | 0.01 | 0.01 | 42 | 1015.8 |
| 20260902201507 | 75 | 239 | 0.0 | 4.0 | 0.01 | 0.01 | 0.01 | 43 | 1016.2 |
| 20260902200004 | 75 | 266 | 0.0 | 2.0 | 0.01 | 0.01 | 0.01 | 47 | 1016.6 |
| 20260902194602 | 76 | 45 | 0.0 | 1.0 | 0.01 | 0.01 | 0.01 | 55 | 1016.7 |
| 20260902193059 | 77 | 6 | 0.0 | 2.0 | 0.01 | 0.01 | 0.01 | 59 | 1016.8 |
| 20260902191557 | 78 | 273 | 1.0 | 5.0 | 0.00 | 0.00 | 0.00 | 62 | 1016.5 |
| 20260902190054 | 82 | 53 | 4.0 | 9.0 | 0.00 | 0.00 | 0.00 | 55 | 1017.0 |
| 20260902184551 | 85 | 114 | 6.0 | 15.0 | 0.00 | 0.00 | 0.00 | 52 | 1016.2 |
| 20260902183050 | 88 | 39 | 8.0 | 17.0 | 0.00 | 0.00 | 0.00 | 49 | 1016.0 |
| 20260902181555 | 91 | 133 | 1.0 | 8.0 | 0.00 | 0.00 | 0.00 | 45 | 1015.8 |
| 20260902180055 | 92 | 91 | 2.0 | 8.0 | 0.00 | 0.00 | 0.00 | 46 | 1015.8 |
| 20260902174553 | 93 | 298 | 1.0 | 5.0 | 0.00 | 0.00 | 0.00 | 44 | 1016.0 |
| 20260902173046 | 94 | 277 | 1.0 | 5.0 | 0.00 | 0.00 | 0.00 | 43 | 1016.2 |
| 20260902171554 | 93 | 44 | 1.0 | 4.0 | 0.00 | 0.00 | 0.00 | 44 | 1016.3 |
| 20260902170042 | 91 | 319 | 1.0 | 7.0 | 0.00 | 0.00 | 0.00 | 45 | 1016.5 |
| 20260902164640 | 92 | 298 | 2.0 | 5.0 | 0.00 | 0.00 | 0.00 | 46 | 1016.6 |
| 20260902163038 | 91 | 338 | 0.0 | 3.0 | 0.00 | 0.00 | 0.00 | 47 | 1016.4 |
| 20260902161541 | 89 | 252 | 1.0 | 5.0 | 0.00 | 0.00 | 0.00 | 48 | 1016.6 |
| 20260902160034 | 89 | 268 | 1.0 | 6.0 | 0.00 | 0.00 | 0.00 | 50 | 1016.6 |